Location: Althorst
(53.6379°N, 10.7715°E)
Time: 05:09:45
(UTC+00:00)

Cosmos 292 Rocket - Pass Details

Date: 10 December 2019
Orbit: 673 x 695 km, 74.0° (Epoch: 18 January)

Event Time Altitude Azimuth Distance (km) Brightness Sun altitude
Rises 15:55:37 0° 335° (NNW) 3,085 7.1 -8.1°
Reaches altitude 10° 15:58:04 10° 343° (NNW) 2,165 6.2 -8.4°
Maximum altitude 16:02:42 42° 55° (NE) 993 4.2 -9.0°
Drops below altitude 10° 16:07:19 10° 126° (SE) 2,152 6.1 -9.6°
Sets 16:09:44 0° 133° (SE) 3,063 6.9 -9.9°
